Volver al catálogo

FENGYUN 1C DEB

LostSSO
NORAD 31318·DEBRIS·🇨🇳 China

Lanzado May 10, 1999 desde Taiyuan Satellite Launch Center

Loading…

Próximos Pases (próximas 24 horas)

TLE

ObsoletoSource: Space-Track

Época: Nov 4, 2009, 01:31 UTC

1 31318U 99025BPW 09308.06340418 -.00000046  00000-0  00000-0 0  9998
2 31318  99.0189 326.0718 0105784 151.2041 209.5640 14.24254391133895

Sigue FENGYUN 1C DEB en tiempo real con AllMySat

Download on the App Store